Location: Newark
(35.8833°N, 14.5000°E)
Time: 21:27:21
(UTC+00:00)

Altair - Pass Details

Date: 20 November 2019
Orbit: 1502 x 1682 km, 47.2° (Epoch: 09 December)

Event Time Altitude Azimuth Distance (km) Brightness Sun altitude
Rises 07:47:39 0° 303° (WNW) 4,656 9.4 20.0°
Reaches altitude 10° 07:50:38 10° 303° (WNW) 3,687 9.0 20.5°
Maximum altitude 07:59:59 86° 216° (SW) 1,563 8.0 21.8°
Drops below altitude 10° 08:09:40 10° 129° (SE) 3,809 11.5 23.1°
Sets 08:12:48 0° 129° (SE) 4,817 11.5 23.5°
